AztechSat-1 (45261 NORAD) Tracking and Keplerian Element Data

This shows tracking and keplerian element data for the satellite.

Feedback or suggestion? Click here.




ElementValue
Catalog45261
NameAztechSat-1
Epoch Orbit10303
Epoch Day343.6462685
Epoch Year2021
RAAN133.7972
Inclination51.6094
Eccentricity0.0007949
Argument of Perigee303.2662
Mean Anonmoly56.76
Mean Motion16.34692915
Decay Rate0.06206479
L11 45261U 98067RE 21343.64626850 .06206479 12307-4 81597-3 0 9992
L22 45261 51.6094 133.7972 0007949 303.2662 56.7600 16.34692915103035



Live tracking and technical data element details for AztechSat-1 (NORAD 45261). AztechSat-1 can be tracked NOW for your location showing map with azimuth and elevation plus other details from your city location.







IsCatalogInMostPopularTable: catalog: 45261, numindb: 284
Update: records affected: 1



GetName: 45261 AztechSat-1

Hit Count: updated at: Thu, 23 Jan 2025 17:46:06 GMT